This demonstration page uses our WeatherBlox Daily Observations layout. Learn more.

38.89511, -77.03637

Hourly Observations for February 12, 2020

Temp ( °F °C ) Dew Point ( °F °C ) Humidity (%) Winds ( mph kmh ) Pressure ( in mb ) Visibility ( mi km ) Precip ( " mm )
12:52 am 00:52 Cloudy 49 9.4 35 1.7 59 59 NW 14 22 30.09 1019 10 16.0934 0 0
1:52 am 01:52 Cloudy 48 8.9 35 1.7 61 61 NW 10 17 30.1 1019 10 16.0934 0 0
2:52 am 02:52 Cloudy 47 8.3 32 0 56 56 NW 8 13 30.09 1019 10 16.0934 0 0
3:52 am 03:52 Mostly Cloudy 45 7.2 29 -1.7 54 54 NNW 8 13 30.11 1020 10 16.0934 0 0
4:52 am 04:52 Cloudy 44 6.7 28 -2.2 53 53 NNW 12 19 30.15 1021 10 16.0934 0 0
5:52 am 05:52 Cloudy 43 6.1 29 -1.7 58 58 NNW 6 9 30.18 1022 10 16.0934 0 0
6:52 am 06:52 Cloudy 42 5.6 28 -2.2 58 58 N 14 22 30.21 1023 10 16.0934 0 0
7:52 am 07:52 Cloudy 42 5.6 29 -1.7 60 60 NNW 14 22 30.24 1024 10 16.0934 0 0
8:52 am 08:52 Cloudy 44 6.7 27 -2.8 51 51 NNE 12 19 30.26 1025 10 16.0934 0 0
9:52 am 09:52 Cloudy 45 7.2 28 -2.2 52 52 N 7 11 30.28 1025 10 16.0934 0 0
10:52 am 10:52 Mostly Cloudy 47 8.3 28 -2.2 48 48 N 8 13 30.26 1025 10 16.0934 0 0
11:52 am 11:52 Cloudy 48 8.9 29 -1.7 48 48 ENE 6 9 30.23 1024 10 16.0934 0 0
12:52 pm 12:52 Cloudy 49 9.4 26 -3.3 41 41 Calm 30.21 1023 10 16.0934 0 0
1:52 pm 13:52 Cloudy 49 9.4 25 -3.9 39 39 Calm 30.2 1023 10 16.0934 0 0
2:52 pm 14:52 Mostly Cloudy 49 9.4 28 -2.2 44 44 SSW 9 15 30.16 1021 10 16.0934 0 0
3:52 pm 15:52 Cloudy 49 9.4 30 -1.1 48 48 ESE 8 13 30.17 1022 10 16.0934 0 0
4:52 pm 16:52 Cloudy with Light Rain 46 7.8 33 0.6 61 61 ESE 9 15 30.17 1022 10 16.0934 0.001 0.001
5:52 pm 17:52 Cloudy with Light Rain 45 7.2 33 0.6 63 63 SE 9 15 30.15 1021 9 14.48406 0.001 0.001
6:34 pm 18:34 Cloudy with Light Rain 43 6.1 36 2.2 76 76 SSE 9 15 30.16 1021 4 6.43736 0.02 0.508
6:52 pm 18:52 Cloudy with Light Rain 42 5.6 36 2.2 79 79 SE 9 15 30.14 1021 4 6.43736 0.04 1.016
7:52 pm 19:52 Cloudy with Light Rain 42 5.6 37 2.8 82 82 SSE 5 7 30.12 1020 5 8.0467 0.03 0.762
8:30 pm 20:30 Cloudy 42 5.6 38 3.3 85 85 ESE 8 13 30.09 1019 10 16.0934 0.02 0.508
8:52 pm 20:52 Cloudy 42 5.6 38 3.3 85 85 ESE 6 9 30.08 1019 10 16.0934 0.02 0.508
9:52 pm 21:52 Cloudy 42 5.6 39 3.9 89 89 SE 9 15 30.01 1016 10 16.0934 0 0
10:08 pm 22:08 Cloudy 43 6.1 38 3.3 82 82 SSE 7 11 30.01 1016 10 16.0934 0 0
10:10 pm 22:10 Cloudy 43 6.1 38 3.3 82 82 SSE 7 11 30.01 1016 10 16.0934 0 0
10:52 pm 22:52 Cloudy 42 5.6 37 2.8 82 82 SSE 8 13 29.99 1016 10 16.0934 0 0
11:52 pm 23:52 Cloudy 41 5 38 3.3 89 89 SSE 12 19 29.91 1013 10 16.0934 0 0

Powered by AerisWeather